Regional Weather Roundup
Issued by NWS Jackson, KY

Home | Current Version | Previous Version | Graphics & Text | Print | Product List | Glossary On
Versions: 1 2 3 4 5 6 7 8 9 10 11 12 13 14 15 16 17 18 19 20 21 22 23 24 25 26 27
000
ASUS43 KJKL 210010
RWRJKL

EAST KENTUCKY HOURLY WEATHER ROUNDUP
NATIONAL WEATHER SERVICE JACKSON KY
700 PM EST SAT JAN 20 2018

NOTE: "FAIR" INDICATES FEW OR NO CLOUDS BELOW 12,000 FEET WITH
NO SIGNIFICANT WEATHER AND/OR OBSTRUCTIONS TO VISIBILITY.

* THESE REPORTS ARE NOT UNDER NWS QUALITY CONTROL AND MAY NOT
  REPORT WEATHER SUCH AS PRECIPITATION AND FOG.

KYZ079-080-083-085-087-088-110-112-115-119-120-210100
...EASTERN KENTUCKY...

CITY           SKY/WX    TMP DP  RH WIND       PRES   REMARKS
JACKSON        CLOUDY    52  40  63 VRB5      30.17R
6HR MIN TEMP:  50; 6HR MAX TEMP:  53;

LONDON         CLOUDY    51  36  56 CALM      30.18R
6HR MIN TEMP:  51; 6HR MAX TEMP:  57;

SOMERSET*      CLOUDY    50  37  62 CALM      30.20R
MONTICELLO*    CLOUDY    46  37  71 W6        30.19S
6HR MIN TEMP:  45; 6HR MAX TEMP:  58;

WILLIAMSBURG*  CLOUDY    52  34  50 SE6       30.19R
MIDDLESBORO*   CLOUDY    42  34  74 CALM      30.22R
6HR MIN TEMP:  42; 6HR MAX TEMP:  53;

HARLAN APT*    CLOUDY    46  32  57 CALM      30.21R
PIKE CO APT*   CLOUDY    50  39  66 S5        30.16S
BIG SANDY APT* CLOUDY    52  40  64 SW3       30.17R
6HR MIN TEMP:  52; 6HR MAX TEMP:  55;

MOREHEAD APT*  CLOUDY    46  36  66 S7        30.16F
ASHLAND*       CLOUDY    39  33  79 CALM      30.16R
$$

KYZ035-036-041-042-044-050-067-078-099-210100
...CENTRAL KENTUCKY...

CITY           SKY/WX    TMP DP  RH WIND       PRES   REMARKS
MT STERLING*   CLOUDY    46  39  76 SW7       30.17S
FLEMING/MASON* CLOUDY    43  36  76 SW7       30.15S
DANVILLE*      CLOUDY    46  43  87 CALM      30.17R
LEXINGTON      CLOUDY    49  42  77 SW13      30.15R
6HR MIN TEMP:  47; 6HR MAX TEMP:  50;

FRANKFORT      CLOUDY    48  38  68 S7        30.13R
6HR MIN TEMP:  48; 6HR MAX TEMP:  50;

LOUISVILLE     CLOUDY    50  42  74 SW12      30.13R
6HR MIN TEMP:  50; 6HR MAX TEMP:  54;

GLASGOW*       CLOUDY    46  38  74 E3        30.15S
BOWLING GREEN  CLOUDY    53  43  68 SE3       30.15R
6HR MIN TEMP:  48; 6HR MAX TEMP:  57;

$$

KYZ091>093-OHZ055-061-077-WVZ005-015-034-035-042-210100
...SOUTHERN OHIO/WEST VIRGINIA...

CITY           SKY/WX    TMP DP  RH WIND       PRES   REMARKS
COVINGTON      CLOUDY    45  36  70 S9        30.09R
COLUMBUS       MOCLDY    43  31  62 SW8       30.10R
DAYTON         CLOUDY    43  35  73 S8        30.08R
WILMINGTON     CLOUDY    41  33  73 S7        30.09R
HUNTINGTON     CLOUDY    49  34  56 SW5       30.14R
CHARLESTON       N/A     49  38  65 CALM      30.14R
BECKLEY          N/A     41  33  73 SW5       30.15R
BLUEFIELD      MOCLDY    42  34  73 W7        30.17R
LOGAN CO APT*  CLOUDY    50  37  62 CALM      30.15R
$$

VAZ002-007-008-TNZ017-027-036-066-071-210100
...SOUTHWEST VIRGINIA/EAST TENNESSEE...

CITY           SKY/WX    TMP DP  RH WIND       PRES   REMARKS
WISE*          CLOUDY    41  34  75 SW6       30.20R
JONESVILLE*    MOCLDY    41  32  70 CALM      30.24R
ABINGDON*      CLOUDY    43  35  74 CALM      30.22R
BRISTOL        CLOUDY    44  36  73 CALM      30.22R
MORRISTOWN*    PTCLDY    46  32  57 CALM      30.21R
SEVIERVILLE*   CLOUDY    46  37  71 CALM      30.21R
KNOXVILLE        N/A     51  37  58 W3        30.20R
LAFOLLETTE*    CLOUDY    45  34  65 CALM      30.24R
OAK RIDGE        N/A     46  34  62 CALM      30.22R
CROSSVILLE     CLOUDY    50  34  54 CALM      30.20R
NASHVILLE        N/A     55  33  43 S6        30.17R
$$

...KEY TO REMARKS...
VSB - VISIBILITY IN MILES
WCI - WIND CHILL INDEX
HX  - HEAT INDEX

$$




USA.gov is the U.S. government's official web portal to all federal, state and local government web resources and services.